Find Starlink 34165

NORAD ID: 63997 Int'l Des: 2025-101 Owner: SPXS Country: US Constellation: starlink operational
LEOCIRCULAR

Live Position

Loading 3D Globe...

About Starlink 34165

Description loading...

Upcoming Passes

Passes for default location (London). Set your location on the main map for personalized predictions.

Altitude History

Loading altitude history...

Two-Line Element Set

1 63997U 25101D 26106.44930551 .00006050 00000-0 22914-3 0 9991
2 63997 42.9991 144.4076 0001399 269.5433 90.5258 15.27589917 52831
Epoch: Apr 16, 2026 • Age: 25 hours

Current Status

Altitude 483.1 km
Velocity 7.63 km/s
Sub-Earth Point 23.23°N, 139.4°E
Launch Date May 14, 2025
Age 0.9 years
Type internet

Technical Details

Classification Payload
Mass 575.00 kg
Dry Mass 530.00 kg
Total Mass 575.00 kg
Length 0.30 m
Diameter 4.10 m
Span 29.00 m
Shape Box + pan
Manufacturer SPXS
Bus Type Starlink V2MO
Phase Status In Orbit
Owner/State SPXS/US

Most Searched